« Back
NWS Peachtree City, Ga » Text Product » GA Regional Weather Roundup


Printer-friendly Version
Current Version              Previous Versions:   1  2  3  4  5  6  7  8  9  

Regional Weather Roundup

107
ASUS42 KFFC 222003
RWRGA
WEATHER ROUNDUP FOR GEORGIA
NATIONAL WEATHER SERVICE PEACHTREE CITY GA
400 PM EDT WED OCT 22 2014

NOTE: "FAIR" INDICATES FEW OR NO CLOUDS BELOW 12,000 FEET WITH NO
SIGNIFICANT WEATHER AND/OR OBSTRUCTIONS TO VISIBILITY.

* = USE WITH CAUTION. THE STATIONS MARKED WITH AN ASTERISK MAY NOT
REPORT WEATHER SUCH AS PRECIPITATION, FOG, OR THUNDER AND ARE NOT
QUALITY CONTROLLED BY NWS.

THE REMARK "TC" DENOTES TEMPERATURE READING IN DEGREES CELSIUS.

GAZ001>058-222100-
NORTH GEORGIA

CITY           SKY/WX    TMP DP  RH WIND       PRES   REMARKS
ATLANTA        SUNNY     69  38  32 N8        30.07S
ATHENS         SUNNY     69  37  30 NE6       30.06S
CHAMBLEE       SUNNY     70  38  31 N6        30.06F
PEACHTREE CITY SUNNY     70  41  34 NW10      30.07F
ROME           SUNNY     67  41  38 N15       30.11S
WEST ATLANTA   SUNNY     68  41  37 W6        30.06F
GAINESVILLE    SUNNY     69  35  28 NW5       30.07F
CARTERSVILLE   SUNNY     67  40  37 VRB3      30.10F


CITY           SKY/WX    TMP DP  RH WIND       PRES   REMARKS
DALTON*        SUNNY     63  45  51 N12       30.13S
LAWRENCEVILLE* SUNNY     70  34  26 CALM      30.06F
MARIETTA       SUNNY     70  44  39 W6        30.07F
KENNESAW*      SUNNY     66  41  39 N9        30.10S
$$

GAZ059>098-102>109-222100-
CENTRAL GEORGIA

CITY           SKY/WX    TMP DP  RH WIND       PRES   REMARKS
AUGUSTA-BUSH   SUNNY     71  38  29 NE10      30.02F
AUGUSTA-DANIEL SUNNY     70  38  31 N10       30.04F
COLUMBUS       SUNNY     71  41  33 NW9       30.05F
MACON          SUNNY     69  43  38 VRB3      30.05S
ROBINS AFB     SUNNY     70  46  40 NW6       30.04S


CITY           SKY/WX    TMP DP  RH WIND       PRES   REMARKS
LAGRANGE*      SUNNY     72  43  34 N7G16     30.07S
SYLVANIA*      SUNNY     75  47  36 N9        30.03S
MILLEDGEVILLE* SUNNY     68  46  45 NW5       30.05F
$$

GAZ099>101-110>166-222100-
SOUTH GEORGIA

CITY           SKY/WX    TMP DP  RH WIND       PRES   REMARKS
SAVANNAH       SUNNY     72  42  34 N9        30.01F
VALDOSTA       SUNNY     76  43  30 N13       29.99F
ALMA           SUNNY     72  44  36 NE5       30.02S
ST SIMONS      SUNNY     69  51  52 E13       30.00F
FT STEWART     SUNNY     71  43  36 N8        30.00F
ALBANY         SUNNY     74  43  32 NW7       30.04F
HUNTER AFB     SUNNY     71  44  38 NW9       29.99F
MOODY AFB      SUNNY     75  45  34 NW8       30.00F
BRUNSWICK      SUNNY     73  45  35 N5        30.01S


CITY           SKY/WX    TMP DP  RH WIND       PRES   REMARKS
BAINBRIDGE*    SUNNY     79  48  34 NW9       30.01F
MOULTRIE*      SUNNY     73  46  38 NW7       30.01F
VIDALIA*       SUNNY     70  45  40 NE7       30.03S
WAYCROSS*      SUNNY     75  48  38 N5        30.01S
DOUGLAS*       SUNNY     73  41  31 N8        30.03S
$$



USA.gov is the U.S. government's official web portal to all federal, state and local government web resources and services.